NOAA 15 1 25338U 98030A 25189.13899880 .00000173 00000-0 88678-4 0 9994 2 25338 98.5339 213.5812 0008988 276.4678 83.5479 14.26993415412473 METEOSAT 8 (MSG 1) 1 27509U 02040B 25188.94903914 -.00000137 00000-0 00000-0 0 9994 2 27509 10.5746 43.9188 0015422 67.2129 283.9348 0.97905106 83568 KALPANA 1 (METSAT 1) 1 27525U 02043A 25188.61206638 .00000001 00000-0 00000-0 0 9997 2 27525 12.4846 35.0533 0007499 130.8574 225.1522 0.98336827 83099 NOAA 18 1 28654U 05018A 25189.21727434 .00000057 00000-0 53693-4 0 9996 2 28654 98.8422 268.3715 0015035 51.5842 308.6678 14.13617326 37799 METEOSAT 9 (MSG 2) 1 28912U 05049B 25188.78664819 .00000133 00000-0 00000-0 0 9990 2 28912 8.5732 57.4645 0001666 356.2071 201.2468 1.00268519 3551 HIMAWARI 7 1 28937U 06004A 25189.06038208 -.00000211 00000-0 00000+0 0 9995 2 28937 4.8941 77.2206 0007134 141.3453 74.8602 0.99079503 70676 FORMOSAT 3A 1 29047U 06011A 25188.73108181 .00000358 00000-0 15007-3 0 9995 2 29047 71.9781 297.2873 0047304 114.9166 245.6899 14.30984419 5125 FORMOSAT 3B 1 29048U 06011B 25188.79228175 .00000273 00000-0 11865-3 0 9992 2 29048 71.9641 205.9810 0040542 75.3065 285.2561 14.30969925 7508 FORMOSAT 3C 1 29049U 06011C 25188.91688149 .00000299 00000-0 12845-3 0 9995 2 29049 72.0192 27.8773 0032768 85.7372 274.7509 14.30994376 3417 FORMOSAT 3D 1 29050U 06011D 25188.79958232 .00001219 00000-0 23061-3 0 9991 2 29050 72.0147 337.6814 0044993 200.5067 159.4285 14.65571968 25890 FORMOSAT 3E 1 29051U 06011E 25189.11735073 .00000238 00000-0 10354-3 0 9996 2 29051 72.0045 285.7733 0067362 326.8932 32.7997 14.31121052 6079 FORMOSAT 3F 1 29052U 06011F 25189.20544192 .00000297 00000-0 12686-3 0 9992 2 29052 72.0332 5.3712 0038196 38.1406 322.2424 14.31201412 4444 GOES 13 1 29155U 06018A 25188.79537986 .00000011 00000-0 00000+0 0 9996 2 29155 3.6346 80.6657 0059923 267.3761 314.0306 0.98786582 69979 METOP-A 1 29499U 06044A 25188.93869888 .00001744 00000-0 21124-3 0 9999 2 29499 98.3317 280.4936 0180195 85.7819 336.2644 14.74140234974705 FENGYUN 2D 1 29640U 06053A 25188.94679155 -.00000167 00000-0 00000+0 0 9999 2 29640 10.3128 43.6278 0009987 33.3938 322.5842 0.98194737 67614 FENGYUN 3A 1 32958U 08026A 25189.07409472 .00000062 00000-0 49802-4 0 9996 2 32958 98.6486 132.1374 0009552 44.9284 315.2664 14.19452671886697 FENGYUN 2E 1 33463U 08066A 25188.61423839 .00000032 00000-0 00000-0 0 9994 2 33463 8.4747 57.3874 0001313 66.1323 279.5072 0.99118696 60584 NOAA 19 1 33591U 09005A 25189.15756416 .00000144 00000-0 10076-3 0 9991 2 33591 98.9962 254.0210 0012676 283.9306 76.0456 14.13386357846145 GOES 14 1 35491U 09033A 25188.68490148 -.00000053 00000-0 00000-0 0 9990 2 35491 0.7876 87.7408 0002764 64.7613 271.8223 1.00274551 3139 METEOR-M 1 35865U 09049A 25189.12386374 .00000048 00000-0 40760-4 0 9991 2 35865 98.6868 150.0941 0001576 196.6479 163.4648 14.23029484820453 GOES 15 1 36411U 10008A 25189.14675010 .00000055 00000-0 00000+0 0 9992 2 36411 0.3886 85.3379 0003025 105.9997 209.1059 1.00272841 56188 COMS 1 1 36744U 10032A 25188.92989198 -.00000332 00000-0 00000-0 0 9998 2 36744 3.9333 79.6704 0001047 18.2595 291.0773 1.00271275 47636 FENGYUN 3B 1 37214U 10059A 25189.24790837 .00000056 00000-0 52438-4 0 9994 2 37214 99.0112 227.9052 0023193 81.6342 351.7342 14.14736659758832 NPP 1 37849U 11061A 25189.15856301 .00000038 00000-0 38756-4 0 9998 2 37849 98.7580 128.1119 0000778 175.9131 184.2051 14.19544396709623 FENGYUN 2F 1 38049U 12002A 25189.18769116 -.00000015 00000-0 00000+0 0 9999 2 38049 6.7086 69.9902 0001549 142.1776 49.6268 0.99135918 49390 METEOSAT 10 (MSG 3) 1 38552U 12035B 25188.99199582 .00000012 00000-0 00000+0 0 9992 2 38552 3.8546 62.0558 0000963 57.3443 164.5082 1.00279878 47763 METOP-B 1 38771U 12049A 25189.18655517 .00000081 00000-0 56565-4 0 9995 2 38771 98.5755 242.5962 0000439 122.0345 238.0875 14.21462390664382 FENGYUN 3C 1 39260U 13052A 25189.20268448 .00000071 00000-0 57365-4 0 9998 2 39260 98.4554 174.7282 0013588 296.2659 63.7119 14.15633944609969 METEOR M2 1 40069U 14037A 25189.20196799 .00000081 00000-0 56085-4 0 9999 2 40069 98.4689 172.9869 0005018 327.3940 32.6927 14.21306856570455 HIMAWARI 8 1 40267U 14060A 25188.94835539 -.00000259 00000-0 00000+0 0 9996 2 40267 0.0453 242.0162 0001213 236.0320 290.1539 1.00272660 39413 FENGYUN 2G 1 40367U 14090A 25188.70349913 -.00000289 00000-0 00000-0 0 9994 2 40367 4.7649 77.0299 0003834 139.5415 62.0710 1.00265116 38540 METEOSAT 11 (MSG 4) 1 40732U 15034A 25188.85088328 .00000076 00000-0 00000+0 0 9997 2 40732 2.3392 72.3845 0000705 114.2286 55.0086 1.00269047 36554 ELEKTRO-L 2 1 41105U 15074A 25188.83314416 -.00000106 00000-0 00000-0 0 9990 2 41105 5.8229 74.7869 0000803 188.0678 308.6546 1.00272140 35051 HIMAWARI 9 1 41836U 16064A 25188.94835539 -.00000258 00000-0 00000-0 0 9995 2 41836 0.0362 261.2967 0001512 218.4972 288.5238 1.00273288 31753 GOES 16 1 41866U 16071A 25188.97111804 -.00000074 00000-0 00000+0 0 9996 2 41866 0.0522 221.2148 0001152 281.5633 28.2742 1.00272181 31644 FENGYUN 4A 1 41882U 16077A 25188.94496706 -.00000342 00000-0 00000+0 0 9992 2 41882 1.4433 84.0929 0006638 164.6492 141.2109 1.00266460 31521 CYGFM05 1 41884U 16078A 25188.83513332 .00010749 00000-0 25179-3 0 9997 2 41884 34.9621 352.8209 0008639 150.3825 209.7385 15.41233545475341 CYGFM04 1 41885U 16078B 25188.82531970 .00011668 00000-0 25560-3 0 9990 2 41885 34.9373 331.4163 0008102 174.2857 185.7956 15.43217075475645 CYGFM02 1 41886U 16078C 25189.07362595 .00011560 00000-0 24578-3 0 9993 2 41886 34.9459 329.8626 0009752 169.9722 190.1194 15.44084387475700 CYGFM01 1 41887U 16078D 25188.87956750 .00010548 00000-0 24388-3 0 9997 2 41887 34.9455 355.8856 0008149 136.4308 223.7056 15.41628113475280 CYGFM08 1 41888U 16078E 25189.10691571 .00010814 00000-0 24194-3 0 9993 2 41888 34.9482 338.9830 0010235 164.5913 195.5120 15.42584790475560 CYGFM07 1 41890U 16078G 25188.78117392 .00011926 00000-0 26171-3 0 9995 2 41890 34.9497 330.9681 0008565 180.5457 179.5254 15.43160023475491 CYGFM03 1 41891U 16078H 25188.66160484 .00011378 00000-0 25194-3 0 9998 2 41891 34.9449 333.4187 0007502 163.4012 196.6954 15.42909477475451